Melbourne Airport, Australia

9:27 AM AEDT on November 24, 2017 (GMT +1100)
Melbourne International

Weather History for YMML - September, 2013

Change the Weather History Date:

Friday, September 20, 2013

  Actual Average Record
Temperature  
Mean Temperature 54 °F -  
Max Temperature 61 °F 63 °F 71 °F (2015)
Min Temperature 44 °F 44 °F 39 °F (2002)
Degree Days  
Heating Degree Days 12    
Growing Degree Days 4 (Base 50)    
Moisture  
Dew Point 44 °F    
Average Humidity 68    
Maximum Humidity 87    
Minimum Humidity 43    
Precipitation  
Precipitation 0.02 in 0.07 in - ()
Sea Level Pressure  
Sea Level Pressure 29.80 in    
Wind  
Wind Speed 13 mph ()    
Max Wind Speed 23 mph    
Max Gust Speed 33 mph    
Visibility 7.3 miles    
Events Rain    
Averages and records for this station are not official NWS values.
T = Trace of Precipitation, MM = Missing Value Source: Averaged Metar Reports

Daily Weather History Graph

Daily Weather History Graph

Search for Another Location

Airport or City:

Trip Planner

Search our weather history database for the weather conditions in past years. The results will help you decide how hot, cold, wet, or windy it might be!

Date:

Astronomy

Sep. 20, 2013 Rise Set
Actual Time 6:13 AM AEST 6:15 PM AEST
Civil Twilight 5:47 AM AEST 6:41 PM AEST
Nautical Twilight 5:17 AM AEST 7:11 PM AEST
Astronomical Twilight 4:46 AM AEST 7:42 PM AEST
Moon 7:11 PM AEST (9/20) 6:14 AM AEST (9/20)
Length of Visible Light 12h 53m
Length of Day
12h 01m
Full, 100% of the Moon is Illuminated
Sep 20
Full
Sep 27
Last Quarter
Oct 5
New
Oct 12
First Quarter
Oct 19
Full

Hourly Weather History & Observations

Time (AEST) Temp. Windchill Dew Point Humidity Pressure Visibility Wind Dir Wind Speed Gust Speed Precip Events Conditions
12:00 AM 52 °F - 43 °F 62% 29.67 in 19 mi North 11.5 mph - -   Smoke
12:00 AM 51.8 °F - 42.8 °F 71% 29.65 in - North 11.5 mph - N/A   Clear
12:30 AM 53.6 °F - 42.8 °F 67% 29.65 in - North 16.1 mph - N/A   Clear
1:00 AM 53 °F - 40 °F 52% 29.68 in - NW 16.1 mph - -  
1:00 AM 53.6 °F - 41.0 °F 62% 29.65 in 6.2 mi NW 16.1 mph - N/A   Mostly Cloudy
1:30 AM 51.8 °F - 41.0 °F 67% 29.65 in 6.2 mi NNW 11.5 mph - N/A   Mostly Cloudy
2:00 AM 52 °F - 39 °F 51% 29.67 in - NW 13.8 mph - -  
2:00 AM 51.8 °F - 39.2 °F 62% 29.65 in 6.2 mi NW 13.8 mph - N/A   Mostly Cloudy
2:30 AM 50.0 °F - 39.2 °F 66% 29.65 in 6.2 mi NW 8.1 mph - N/A   Mostly Cloudy
3:00 AM 50 °F - 41 °F 61% 29.66 in 19 mi NNW 8.1 mph - -   Partly Cloudy
3:00 AM 50.0 °F - 41.0 °F 71% 29.65 in 6.2 mi NNW 8.1 mph - N/A   Mostly Cloudy
3:30 AM 50.0 °F - 41.0 °F 71% 29.65 in 6.2 mi NNW 8.1 mph - N/A   Mostly Cloudy
4:00 AM 49 °F - 41 °F 65% 29.66 in - North 6.9 mph - -  
4:00 AM 50.0 °F - 41.0 °F 71% 29.65 in 6.2 mi North 6.9 mph - N/A   Mostly Cloudy
4:30 AM 50.0 °F - 41.0 °F 71% 29.65 in 6.2 mi North 9.2 mph - N/A   Mostly Cloudy
5:00 AM 49 °F - 40 °F 62% 29.67 in - NNW 6.9 mph - -  
5:00 AM 48.2 °F - 41.0 °F 76% 29.65 in 6.2 mi NNW 6.9 mph - N/A   Mostly Cloudy
5:30 AM 50.0 °F - 41.0 °F 71% 29.68 in 6.2 mi WNW 9.2 mph - N/A   Mostly Cloudy
6:00 AM 49 °F - 41 °F 66% 29.70 in 22 mi WNW 13.8 mph - -   Partly Cloudy
6:00 AM 48.2 °F - 41.0 °F 76% 29.68 in 6.2 mi WNW 13.8 mph - N/A   Mostly Cloudy
6:30 AM 50.0 °F - 41.0 °F 71% 29.68 in 6.2 mi WNW 12.7 mph - N/A   Mostly Cloudy
7:00 AM 50 °F - 42 °F 64% 29.72 in - West 13.8 mph - -  
7:00 AM 50.0 °F - 41.0 °F 71% 29.71 in 6.2 mi West 13.8 mph - N/A Rain Light Rain Showers
7:30 AM 50.0 °F - 42.8 °F 76% 29.71 in 6.2 mi West 12.7 mph - N/A   Mostly Cloudy
8:00 AM 51 °F - 43 °F 66% 29.74 in - West 15.0 mph - -  
8:00 AM 51.8 °F - 42.8 °F 71% 29.74 in 6.2 mi West 15.0 mph - N/A Rain Light Rain Showers
8:30 AM 51.8 °F - 44.6 °F 76% 29.74 in 6.2 mi West 15.0 mph - N/A Rain Light Rain Showers
9:00 AM 52 °F - 44 °F 68% 29.77 in 16 mi West 17.3 mph - - Rain Light Rain Showers
9:00 AM 51.8 °F - 44.6 °F 76% 29.74 in 6.2 mi West 17.3 mph - N/A Rain Light Rain Showers
9:30 AM 53.6 °F - 44.6 °F 72% 29.77 in 6.2 mi WSW 16.1 mph - N/A   Mostly Cloudy
10:00 AM 55 °F - 44 °F 58% 29.78 in - WSW 19.6 mph - -  
10:00 AM 55.4 °F - 44.6 °F 67% 29.77 in 6.2 mi WSW 19.6 mph - N/A   Mostly Cloudy
10:30 AM 55.4 °F - 42.8 °F 63% 29.77 in 6.2 mi WSW 23.0 mph - N/A   Mostly Cloudy
11:00 AM 57 °F - 44 °F 50% 29.79 in - WSW 19.6 mph - -  
11:00 AM 57.2 °F - 42.8 °F 59% 29.77 in 6.2 mi WSW 19.6 mph - N/A   Mostly Cloudy
11:30 AM 57.2 °F - 42.8 °F 59% 29.77 in 6.2 mi WSW 19.6 mph - N/A   Mostly Cloudy
12:00 PM 55.4 °F - 44.6 °F 67% 29.77 in 6.2 mi SW 19.6 mph - N/A Rain Light Rain Showers
12:16 PM 57.2 °F - 46.4 °F 67% 29.80 in 6.2 mi SW 18.4 mph 32.2 mph N/A Rain Light Rain Showers
12:30 PM 59.0 °F - 46.4 °F 63% 29.80 in 6.2 mi SW 15.0 mph - N/A   Scattered Clouds
1:00 PM 61 °F - 44 °F 43% 29.80 in - SW 18.4 mph - -  
1:00 PM 60.8 °F - 44.6 °F 55% 29.77 in 6.2 mi SW 18.4 mph - N/A   Scattered Clouds
1:30 PM 59.0 °F - 41.0 °F 51% 29.80 in 6.2 mi SW 21.9 mph - N/A   Scattered Clouds
2:00 PM 59 °F - 46 °F 53% 29.81 in - WSW 19.6 mph - -  
2:00 PM 59.0 °F - 46.4 °F 63% 29.80 in 6.2 mi WSW 19.6 mph 33.4 mph N/A Rain Light Rain Showers
2:30 PM 60.8 °F - 48.2 °F 63% 29.80 in 6.2 mi WSW 19.6 mph - N/A   Mostly Cloudy
3:00 PM 59.0 °F - 48.2 °F 67% 29.83 in 6.2 mi West 18.4 mph - N/A Rain Light Rain Showers
3:02 PM 57.2 °F - 48.2 °F 72% 29.83 in 6.2 mi West 19.6 mph 33.4 mph N/A Rain Light Rain Showers
3:30 PM 57.2 °F - 48.2 °F 72% 29.83 in 6.2 mi WSW 20.7 mph - N/A   Mostly Cloudy
4:00 PM 59 °F - 49 °F 60% 29.86 in - SW 19.6 mph - -  
4:00 PM 59.0 °F - 48.2 °F 67% 29.86 in 6.2 mi SW 19.6 mph - N/A   Mostly Cloudy
4:06 PM 57.2 °F - 48.2 °F 72% 29.86 in 6.2 mi SW 19.6 mph 31.1 mph N/A   Mostly Cloudy
4:30 PM 57.2 °F - 48.2 °F 72% 29.86 in 6.2 mi SW 18.4 mph - N/A   Mostly Cloudy
5:00 PM 56 °F - 47 °F 64% 29.89 in - SW 18.4 mph - -  
5:00 PM 57.2 °F - 48.2 °F 72% 29.89 in 6.2 mi SW 18.4 mph - N/A   Mostly Cloudy
5:20 PM 55.4 °F - 48.2 °F 77% 29.89 in 6.2 mi WSW 20.7 mph 32.2 mph N/A Rain Light Rain Showers
5:30 PM 55.4 °F - 48.2 °F 77% 29.89 in 6.2 mi WSW 20.7 mph - N/A   Mostly Cloudy
6:00 PM 55 °F - 46 °F 63% 29.92 in 16 mi SW 18.4 mph - - Rain Light Rain Showers
6:00 PM 55.4 °F - 46.4 °F 72% 29.92 in 6.2 mi SW 18.4 mph - N/A   Mostly Cloudy
6:30 PM 53.6 °F - 46.4 °F 77% 29.92 in 6.2 mi WSW 13.8 mph - N/A   Mostly Cloudy
7:00 PM 53 °F - 47 °F 73% 29.95 in - SW 10.4 mph - -  
7:00 PM 53.6 °F - 46.4 °F 77% 29.95 in 6.2 mi SW 10.4 mph - N/A   Mostly Cloudy
7:30 PM 51.8 °F - 44.6 °F 76% 29.95 in 6.2 mi WSW 11.5 mph - N/A   Partly Cloudy
8:00 PM 50.0 °F - 42.8 °F 76% 29.95 in 6.2 mi West 10.4 mph - N/A   Partly Cloudy
8:30 PM 48.2 °F - 42.8 °F 82% 29.98 in 6.2 mi West 9.2 mph - N/A   Partly Cloudy
9:00 PM 47 °F - 41 °F 74% 30.00 in 19 mi West 8.1 mph - -   Partly Cloudy
9:00 PM 46.4 °F 42.4 °F 41.0 °F 81% 29.98 in 6.2 mi West 8.1 mph - N/A   Partly Cloudy
9:30 PM 48.2 °F - 41.0 °F 76% 29.98 in 6.2 mi WNW 6.9 mph - N/A   Partly Cloudy
10:00 PM 48 °F - 41 °F 70% 30.00 in - NW 5.8 mph - -  
10:00 PM 48.2 °F - 41.0 °F 76% 29.98 in 6.2 mi NW 5.8 mph - N/A   Partly Cloudy
10:30 PM 46.4 °F 41.9 °F 41.0 °F 81% 29.98 in 6.2 mi WNW 9.2 mph - N/A   Partly Cloudy
11:00 PM 46 °F - 41 °F 76% 30.00 in - WNW 8.1 mph - -  
11:00 PM 46.4 °F 42.4 °F 41.0 °F 81% 29.98 in 6.2 mi WNW 8.1 mph - N/A   Partly Cloudy
11:30 PM 44.6 °F 40.7 °F 41.0 °F 87% 29.98 in 6.2 mi NW 6.9 mph - N/A   Partly Cloudy